QPF
0.02 0.02 0.02 0.02 0.01 0.01 0.01 0.01 0.01 0.00 0.00 0.01 0.01 0.01 0.00 0.00 0.00 0.00 0.00 0.00 0.00 0.01 0.03 0.04 0.04 0.03 0.03 0.03 0.03 0.04 0.04 0.02 0.01 0.02 0.03 0.04 0.04 0.04 0.04 0.04 0.05 0.07 0.07 0.06
0.02 0.01 0.01 0.01 0.01 0.01 0.01 0.02 0.01 0.01 0.01 0.01 0.00 0.00 0.00 0.00 0.00 0.00 0.00 0.00 0.01 0.02 0.03 0.04 0.04 0.04 0.03 0.02 0.02 0.02 0.03 0.03 0.01 0.01 0.02 0.03 0.04 0.04 0.04 0.04 0.03 0.03 0.04 0.04
0.01 0.01 0.01 0.01 0.02 0.02 0.02 0.01 0.01 0.01 0.01 0.01 0.01 0.01 0.00 0.00 0.00 0.00 0.00 0.00 0.01 0.02 0.04 0.04 0.04 0.04 0.03 0.02 0.02 0.02 0.03 0.02 0.01 0.01 0.02 0.02 0.03 0.03 0.03 0.03 0.03 0.03 0.03 0.03
0.01 0.01 0.01 0.01 0.02 0.02 0.02 0.01 0.01 0.01 0.02 0.02 0.02 0.02 0.00 0.00 0.00 0.00 0.00 0.00 0.01 0.02 0.04 0.04 0.03 0.03 0.03 0.03 0.02 0.02 0.02 0.01 0.01 0.01 0.01 0.01 0.02 0.02 0.03 0.03 0.03 0.03 0.03 0.03
0.01 0.01 0.01 0.01 0.01 0.01 0.01 0.01 0.01 0.01 0.02 0.02 0.01 0.02 0.01 0.00 0.00 0.00 0.00 0.01 0.02 0.02 0.04 0.04 0.03 0.03 0.03 0.03 0.02 0.02 0.02 0.01 0.01 0.01 0.00 0.01 0.01 0.01 0.03 0.04 0.04 0.03 0.03 0.03
0.01 0.01 0.01 0.01 0.01 0.01 0.01 0.01 0.01 0.01 0.02 0.03 0.01 0.01 0.01 0.01 0.01 0.01 0.00 0.01 0.01 0.02 0.04 0.05 0.04 0.04 0.03 0.03 0.02 0.02 0.02 0.01 0.00 0.01 0.01 0.01 0.01 0.01 0.01 0.02 0.04 0.04 0.04 0.03
0.01 0.01 0.01 0.01 0.01 0.01 0.01 0.02 0.02 0.02 0.02 0.01 0.00 0.00 0.01 0.00 0.01 0.01 0.01 0.01 0.01 0.03 0.06 0.07 0.05 0.04 0.03 0.03 0.02 0.02 0.01 0.01 0.00 0.01 0.01 0.01 0.01 0.01 0.01 0.01 0.02 0.04 0.05 0.05
0.01 0.01 0.01 0.01 0.01 0.01 0.01 0.01 0.02 0.03 0.02 0.01 0.00 0.01 0.00 0.00 0.00 0.00 0.00 0.00 0.01 0.03 0.06 0.09 0.08 0.05 0.03 0.02 0.02 0.02 0.01 0.01 0.01 0.01 0.01 0.01 0.01 0.01 0.01 0.01 0.01 0.03 0.05 0.05
0.02 0.02 0.01 0.01 0.01 0.01 0.01 0.01 0.01 0.03 0.03 0.02 0.01 0.00 0.00 0.00 0.00 0.00 0.00 0.00 0.01 0.02 0.04 0.09 0.10 0.08 0.05 0.03 0.02 0.01 0.01 0.01 0.01 0.01 0.01 0.01 0.01 0.01 0.01 0.01 0.01 0.02 0.04 0.05
0.03 0.02 0.01 0.02 0.01 0.01 0.01 0.01 0.02 0.03 0.03 0.02 0.01 0.01 0.01 0.00 0.00 0.00 0.01 0.01 0.01 0.01 0.02 0.06 0.10 0.09 0.08 0.04 0.02 0.02 0.01 0.01 0.01 0.01 0.01 0.01 0.01 0.00 0.00 0.01 0.01 0.01 0.03 0.04
0.03 0.02 0.01 0.01 0.02 0.02 0.01 0.01 0.02 0.02 0.02 0.02 0.03 0.01 0.01 0.01 0.00 0.00 0.00 0.01 0.01 0.01 0.01 0.04 0.08 0.09 0.08 0.06 0.04 0.02 0.02 0.02 0.02 0.01 0.01 0.01 0.01 0.01 0.01 0.01 0.01 0.02 0.02 0.03
0.03 0.03 0.01 0.01 0.01 0.02 0.02 0.02 0.03 0.03 0.02 0.02 0.03 0.02 0.01 0.01 0.01 0.00 0.00 0.00 0.01 0.01 0.02 0.02 0.05 0.09 0.08 0.07 0.05 0.02 0.02 0.02 0.02 0.02 0.01 0.01 0.01 0.01 0.01 0.01 0.01 0.02 0.02 0.03
0.04 0.04 0.02 0.01 0.02 0.02 0.02 0.02 0.02 0.03 0.03 0.02 0.03 0.01 0.01 0.01 0.00 0.00 0.00 0.01 0.01 0.01 0.02 0.03 0.04 0.07 0.11 0.08 0.06 0.04 0.03 0.03 0.02 0.02 0.02 0.02 0.01 0.01 0.01 0.01 0.01 0.01 0.02 0.03
0.04 0.04 0.03 0.02 0.01 0.02 0.02 0.01 0.02 0.03 0.03 0.02 0.02 0.01 0.00 0.00 0.01 0.01 0.01 0.01 0.01 0.01 0.02 0.04 0.06 0.06 0.10 0.10 0.08 0.08 0.07 0.05 0.03 0.02 0.02 0.02 0.02 0.02 0.02 0.02 0.02 0.03 0.03 0.04
0.03 0.03 0.02 0.02 0.01 0.02 0.02 0.01 0.01 0.03 0.02 0.02 0.02 0.01 0.01 0.01 0.02 0.02 0.02 0.02 0.01 0.01 0.01 0.02 0.05 0.07 0.08 0.09 0.08 0.09 0.11 0.10 0.06 0.03 0.02 0.02 0.02 0.03 0.03 0.03 0.03 0.04 0.04 0.04
0.01 0.02 0.02 0.02 0.02 0.02 0.02 0.01 0.01 0.01 0.02 0.02 0.01 0.01 0.01 0.01 0.01 0.02 0.02 0.02 0.02 0.02 0.01 0.01 0.02 0.05 0.07 0.08 0.07 0.07 0.10 0.12 0.09 0.06 0.04 0.04 0.04 0.03 0.03 0.03 0.04 0.05 0.06 0.05
0.01 0.02 0.02 0.02 0.02 0.02 0.02 0.01 0.01 0.01 0.01 0.01 0.01 0.01 0.01 0.01 0.01 0.02 0.03 0.03 0.03 0.03 0.02 0.02 0.02 0.02 0.04 0.06 0.07 0.06 0.07 0.09 0.09 0.07 0.07 0.07 0.05 0.05 0.05 0.05 0.05 0.05 0.06 0.06
0.01 0.02 0.02 0.02 0.01 0.02 0.02 0.01 0.01 0.01 0.01 0.01 0.01 0.01 0.01 0.01 0.02 0.02 0.03 0.04 0.04 0.03 0.03 0.03 0.03 0.03 0.03 0.04 0.05 0.05 0.06 0.07 0.07 0.09 0.10 0.10 0.07 0.06 0.06 0.06 0.06 0.06 0.07 0.07
0.01 0.02 0.03 0.02 0.01 0.01 0.01 0.01 0.01 0.02 0.01 0.01 0.01 0.01 0.01 0.01 0.01 0.01 0.02 0.04 0.05 0.04 0.04 0.04 0.03 0.03 0.03 0.03 0.03 0.04 0.05 0.07 0.08 0.09 0.10 0.10 0.09 0.08 0.08 0.07 0.08 0.09 0.08 0.09
0.01 0.02 0.02 0.02 0.01 0.00 0.00 0.00 0.01 0.01 0.01 0.01 0.01 0.02 0.01 0.01 0.02 0.02 0.02 0.03 0.04 0.03 0.04 0.04 0.03 0.03 0.02 0.03 0.03 0.03 0.04 0.06 0.07 0.08 0.10 0.10 0.09 0.09 0.10 0.08 0.09 0.08 0.08 0.08
0.01 0.01 0.02 0.01 0.01 0.00 0.00 0.00 0.01 0.01 0.01 0.01 0.02 0.02 0.02 0.03 0.04 0.04 0.03 0.03 0.04 0.04 0.04 0.04 0.03 0.03 0.03 0.03 0.03 0.02 0.02 0.04 0.05 0.07 0.08 0.10 0.10 0.10 0.10 0.10 0.10 0.09 0.09 0.09
0.01 0.01 0.01 0.01 0.01 0.01 0.00 0.01 0.01 0.02 0.01 0.01 0.01 0.02 0.02 0.03 0.03 0.03 0.03 0.03 0.03 0.04 0.04 0.04 0.03 0.03 0.03 0.04 0.03 0.02 0.03 0.05 0.05 0.05 0.06 0.08 0.09 0.10 0.09 0.09 0.10 0.09 0.08 0.07
0.01 0.01 0.02 0.02 0.01 0.01 0.01 0.01 0.01 0.01 0.01 0.01 0.01 0.01 0.02 0.03 0.03 0.03 0.03 0.03 0.04 0.04 0.05 0.05 0.04 0.04 0.04 0.04 0.03 0.03 0.04 0.04 0.05 0.05 0.06 0.07 0.08 0.08 0.09 0.08 0.08 0.08 0.07 0.06
0.01 0.01 0.01 0.01 0.01 0.01 0.01 0.00 0.01 0.01 0.01 0.01 0.01 0.01 0.02 0.03 0.03 0.03 0.03 0.03 0.04 0.04 0.05 0.05 0.04 0.04 0.04 0.04 0.03 0.03 0.03 0.04 0.04 0.05 0.07 0.08 0.09 0.09 0.08 0.08 0.07 0.06 0.06 0.05
0.01 0.01 0.01 0.01 0.00 0.00 0.00 0.00 0.01 0.01 0.01 0.01 0.01 0.01 0.01 0.02 0.03 0.03 0.03 0.03 0.04 0.05 0.05 0.04 0.03 0.04 0.04 0.04 0.03 0.04 0.04 0.04 0.04 0.05 0.07 0.08 0.09 0.08 0.08 0.08 0.06 0.05 0.05 0.04
0.01 0.00 0.00 0.00 0.00 0.00 0.00 0.00 0.00 0.01 0.01 0.01 0.01 0.01 0.01 0.02 0.02 0.03 0.03 0.03 0.03 0.04 0.04 0.04 0.04 0.05 0.05 0.04 0.04 0.04 0.05 0.05 0.05 0.05 0.06 0.07 0.07 0.07 0.06 0.05 0.05 0.04 0.03 0.03
MSLP
1019.49 1019.64 1019.83 1020.07 1020.31 1020.51 1020.63 1020.62 1020.42 1020.03 1019.47 1018.77 1018.01 1017.27 1016.64 1016.19 1015.97 1015.99 1016.21 1016.57 1017.01 1017.44 1017.79 1018.02 1018.12 1018.12 1018.04 1017.95 1017.88 1017.86 1017.90 1017.98 1018.08 1018.16 1018.17 1018.11 1017.95 1017.71 1017.41 1017.07 1016.72 1016.35 1015.98 1015.58
1020.47 1020.58 1020.73 1020.92 1021.13 1021.33 1021.48 1021.53 1021.41 1021.10 1020.59 1019.90 1019.11 1018.27 1017.50 1016.88 1016.47 1016.31 1016.37 1016.62 1016.97 1017.35 1017.67 1017.89 1017.97 1017.94 1017.83 1017.67 1017.53 1017.45 1017.43 1017.47 1017.55 1017.61 1017.64 1017.59 1017.46 1017.25 1016.99 1016.69 1016.39 1016.10 1015.80 1015.48
1021.37 1021.44 1021.53 1021.66 1021.84 1022.05 1022.25 1022.38 1022.37 1022.17 1021.75 1021.11 1020.30 1019.39 1018.50 1017.71 1017.12 1016.77 1016.67 1016.78 1017.03 1017.33 1017.61 1017.79 1017.84 1017.76 1017.58 1017.35 1017.13 1016.96 1016.87 1016.86 1016.89 1016.94 1016.97 1016.93 1016.83 1016.65 1016.42 1016.17 1015.93 1015.70 1015.48 1015.25
1022.12 1022.14 1022.17 1022.26 1022.42 1022.66 1022.93 1023.17 1023.29 1023.22 1022.91 1022.33 1021.53 1020.58 1019.57 1018.63 1017.86 1017.32 1017.05 1017.02 1017.16 1017.39 1017.62 1017.76 1017.76 1017.62 1017.37 1017.05 1016.74 1016.47 1016.29 1016.20 1016.19 1016.22 1016.23 1016.21 1016.12 1015.96 1015.76 1015.55 1015.35 1015.17 1015.02 1014.85
1022.72 1022.69 1022.67 1022.73 1022.89 1023.17 1023.54 1023.90 1024.17 1024.24 1024.04 1023.54 1022.75 1021.74 1020.63 1019.54 1018.60 1017.89 1017.46 1017.29 1017.33 1017.49 1017.66 1017.76 1017.73 1017.54 1017.22 1016.82 1016.41 1016.04 1015.77 1015.61 1015.54 1015.52 1015.52 1015.49 1015.41 1015.27 1015.08 1014.88 1014.70 1014.55 1014.43 1014.31
1023.17 1023.11 1023.06 1023.11 1023.30 1023.65 1024.12 1024.61 1025.02 1025.22 1025.13 1024.68 1023.89 1022.83 1021.60 1020.36 1019.25 1018.37 1017.79 1017.50 1017.45 1017.55 1017.70 1017.78 1017.73 1017.51 1017.15 1016.68 1016.19 1015.73 1015.37 1015.13 1014.99 1014.93 1014.90 1014.86 1014.76 1014.62 1014.42 1014.21 1014.02 1013.86 1013.74 1013.63
1023.52 1023.44 1023.39 1023.46 1023.70 1024.13 1024.71 1025.32 1025.85 1026.16 1026.13 1025.71 1024.89 1023.74 1022.40 1021.00 1019.72 1018.69 1017.96 1017.57 1017.45 1017.53 1017.67 1017.76 1017.72 1017.51 1017.14 1016.64 1016.09 1015.56 1015.12 1014.81 1014.60 1014.49 1014.42 1014.34 1014.22 1014.05 1013.82 1013.58 1013.34 1013.14 1012.98 1012.85
1023.81 1023.73 1023.70 1023.81 1024.12 1024.64 1025.31 1026.03 1026.64 1027.00 1027.00 1026.55 1025.67 1024.43 1022.94 1021.39 1019.96 1018.77 1017.93 1017.45 1017.29 1017.36 1017.52 1017.66 1017.67 1017.50 1017.15 1016.65 1016.08 1015.51 1015.01 1014.63 1014.36 1014.19 1014.07 1013.95 1013.79 1013.56 1013.29 1012.98 1012.68 1012.41 1012.19 1012.01
1024.07 1024.01 1024.03 1024.20 1024.58 1025.17 1025.91 1026.68 1027.33 1027.70 1027.66 1027.15 1026.18 1024.81 1023.19 1021.49 1019.91 1018.60 1017.67 1017.12 1016.94 1017.02 1017.23 1017.44 1017.52 1017.43 1017.13 1016.67 1016.11 1015.52 1014.99 1014.55 1014.23 1013.99 1013.81 1013.63 1013.42 1013.14 1012.79 1012.41 1012.03 1011.68 1011.38 1011.14
1024.32 1024.30 1024.37 1024.60 1025.04 1025.68 1026.44 1027.21 1027.83 1028.15 1028.03 1027.43 1026.34 1024.84 1023.10 1021.28 1019.59 1018.20 1017.19 1016.62 1016.44 1016.55 1016.82 1017.11 1017.28 1017.27 1017.06 1016.65 1016.12 1015.54 1014.99 1014.51 1014.13 1013.83 1013.58 1013.34 1013.05 1012.71 1012.29 1011.84 1011.37 1010.94 1010.57 1010.26
1024.57 1024.61 1024.73 1025.01 1025.47 1026.10 1026.83 1027.54 1028.06 1028.27 1028.03 1027.31 1026.10 1024.51 1022.68 1020.79 1019.05 1017.62 1016.59 1016.02 1015.86 1016.01 1016.34 1016.70 1016.96 1017.05 1016.91 1016.57 1016.08 1015.52 1014.95 1014.43 1013.99 1013.63 1013.31 1012.99 1012.64 1012.22 1011.74 1011.22 1010.69 1010.19 1009.75 1009.38
1024.85 1024.94 1025.10 1025.39 1025.83 1026.40 1027.03 1027.59 1027.96 1028.01 1027.63 1026.78 1025.49 1023.84 1021.98 1020.09 1018.37 1016.96 1015.97 1015.43 1015.30 1015.49 1015.87 1016.29 1016.62 1016.77 1016.70 1016.42 1015.97 1015.42 1014.83 1014.28 1013.78 1013.34 1012.94 1012.55 1012.12 1011.64 1011.11 1010.54 1009.96 1009.41 1008.93 1008.52
1025.19 1025.32 1025.50 1025.76 1026.12 1026.55 1027.00 1027.36 1027.52 1027.37 1026.83 1025.87 1024.53 1022.88 1021.07 1019.26 1017.63 1016.32 1015.41 1014.93 1014.85 1015.08 1015.49 1015.94 1016.31 1016.50 1016.47 1016.22 1015.79 1015.24 1014.63 1014.03 1013.46 1012.95 1012.47 1011.99 1011.50 1010.97 1010.40 1009.79 1009.19 1008.62 1008.11 1007.68
1025.61 1025.77 1025.93 1026.11 1026.33 1026.56 1026.76 1026.85 1026.75 1026.38 1025.68 1024.64 1023.29 1021.71 1020.03 1018.39 1016.93 1015.77 1015.00 1014.61 1014.59 1014.85 1015.26 1015.71 1016.06 1016.25 1016.23 1015.98 1015.55 1014.99 1014.35 1013.69 1013.06 1012.46 1011.90 1011.35 1010.79 1010.22 1009.62 1009.01 1008.41 1007.83 1007.32 1006.88
1026.13 1026.30 1026.40 1026.46 1026.48 1026.45 1026.34 1026.12 1025.74 1025.13 1024.28 1023.19 1021.88 1020.43 1018.95 1017.53 1016.31 1015.37 1014.76 1014.49 1014.53 1014.80 1015.19 1015.59 1015.91 1016.06 1016.00 1015.74 1015.28 1014.69 1014.01 1013.30 1012.60 1011.92 1011.27 1010.66 1010.05 1009.44 1008.83 1008.22 1007.63 1007.07 1006.57 1006.12
1026.72 1026.88 1026.90 1026.79 1026.57 1026.23 1025.79 1025.24 1024.55 1023.72 1022.74 1021.62 1020.39 1019.12 1017.88 1016.75 1015.80 1015.10 1014.68 1014.54 1014.63 1014.90 1015.25 1015.58 1015.82 1015.91 1015.79 1015.48 1014.99 1014.36 1013.64 1012.88 1012.11 1011.36 1010.65 1009.96 1009.30 1008.67 1008.05 1007.45 1006.87 1006.34 1005.84 1005.39
1027.32 1027.45 1027.36 1027.06 1026.57 1025.93 1025.15 1024.26 1023.29 1022.25 1021.16 1020.05 1018.93 1017.87 1016.89 1016.05 1015.39 1014.94 1014.71 1014.69 1014.83 1015.08 1015.36 1015.61 1015.76 1015.76 1015.57 1015.21 1014.68 1014.02 1013.26 1012.45 1011.63 1010.82 1010.04 1009.30 1008.59 1007.93 1007.30 1006.71 1006.15 1005.63 1005.14 1004.67
1027.79 1027.86 1027.65 1027.16 1026.42 1025.49 1024.40 1023.22 1022.01 1020.80 1019.64 1018.56 1017.58 1016.72 1016.00 1015.45 1015.06 1014.84 1014.78 1014.86 1015.03 1015.25 1015.46 1015.62 1015.67 1015.57 1015.32 1014.91 1014.34 1013.65 1012.87 1012.03 1011.17 1010.31 1009.48 1008.69 1007.94 1007.24 1006.59 1006.00 1005.44 1004.92 1004.41 1003.91
1027.95 1027.96 1027.63 1026.97 1026.02 1024.85 1023.53 1022.13 1020.74 1019.43 1018.25 1017.22 1016.37 1015.71 1015.24 1014.93 1014.78 1014.76 1014.83 1014.98 1015.16 1015.34 1015.48 1015.55 1015.50 1015.33 1015.02 1014.56 1013.98 1013.27 1012.48 1011.62 1010.73 1009.83 1008.95 1008.11 1007.31 1006.57 1005.89 1005.27 1004.69 1004.15 1003.61 1003.07
1027.65 1027.58 1027.15 1026.37 1025.28 1023.95 1022.49 1020.97 1019.50 1018.15 1017.00 1016.06 1015.35 1014.88 1014.60 1014.50 1014.53 1014.66 1014.83 1015.02 1015.20 1015.33 1015.40 1015.38 1015.26 1015.02 1014.67 1014.19 1013.59 1012.88 1012.09 1011.22 1010.30 1009.37 1008.44 1007.53 1006.68 1005.88 1005.15 1004.48 1003.86 1003.28 1002.71 1002.12
1026.78 1026.63 1026.13 1025.27 1024.12 1022.75 1021.25 1019.72 1018.27 1016.98 1015.91 1015.09 1014.53 1014.21 1014.10 1014.16 1014.32 1014.54 1014.77 1014.98 1015.14 1015.23 1015.23 1015.15 1014.97 1014.68 1014.30 1013.80 1013.20 1012.50 1011.69 1010.81 1009.87 1008.90 1007.91 1006.95 1006.02 1005.15 1004.35 1003.61 1002.94 1002.30 1001.68 1001.06
1025.31 1025.10 1024.55 1023.69 1022.57 1021.24 1019.82 1018.40 1017.07 1015.91 1014.98 1014.31 1013.90 1013.73 1013.75 1013.91 1014.15 1014.42 1014.68 1014.88 1015.02 1015.07 1015.03 1014.89 1014.67 1014.36 1013.95 1013.44 1012.84 1012.13 1011.32 1010.42 1009.45 1008.42 1007.38 1006.34 1005.33 1004.37 1003.49 1002.68 1001.93 1001.24 1000.57 999.91
1023.37 1023.08 1022.53 1021.72 1020.69 1019.51 1018.27 1017.04 1015.91 1014.96 1014.22 1013.73 1013.47 1013.41 1013.53 1013.76 1014.05 1014.34 1014.59 1014.79 1014.89 1014.91 1014.84 1014.67 1014.42 1014.09 1013.67 1013.15 1012.53 1011.81 1010.98 1010.05 1009.03 1007.95 1006.84 1005.72 1004.63 1003.60 1002.63 1001.74 1000.92 1000.17 999.47 998.79
1021.12 1020.78 1020.24 1019.53 1018.66 1017.70 1016.70 1015.74 1014.87 1014.17 1013.65 1013.33 1013.21 1013.26 1013.45 1013.72 1014.02 1014.31 1014.56 1014.73 1014.82 1014.81 1014.72 1014.53 1014.27 1013.91 1013.47 1012.94 1012.30 1011.55 1010.69 1009.72 1008.65 1007.52 1006.35 1005.16 1004.00 1002.89 1001.85 1000.89 1000.02 999.23 998.51 997.84
1018.84 1018.45 1017.96 1017.37 1016.70 1015.98 1015.27 1014.60 1014.02 1013.57 1013.26 1013.12 1013.13 1013.26 1013.49 1013.78 1014.08 1014.35 1014.58 1014.74 1014.81 1014.79 1014.68 1014.49 1014.21 1013.84 1013.38 1012.82 1012.14 1011.36 1010.45 1009.44 1008.34 1007.16 1005.94 1004.71 1003.50 1002.34 1001.26 1000.27 999.37 998.56 997.84 997.20
1016.79 1016.38 1015.94 1015.48 1015.01 1014.55 1014.11 1013.72 1013.41 1013.20 1013.09 1013.09 1013.19 1013.38 1013.63 1013.91 1014.20 1014.45 1014.66 1014.80 1014.86 1014.84 1014.73 1014.52 1014.23 1013.84 1013.35 1012.76 1012.05 1011.23 1010.28 1009.24 1008.11 1006.91 1005.68 1004.44 1003.23 1002.07 1000.99 1000.00 999.11 998.31 997.63 997.03
Thickness
5530 5524 5521 5525 5525 5529 5527 5524 5523 5529 5533 5530 5530 5537 5545 5549 5546 5545 5545 5545 5546 5549 5552 5552 5553 5554 5557 5559 5562 5564 5567 5570 5572 5574 5575 5577 5580 5582 5584 5585 5587 5587 5587 5588
5515 5514 5519 5520 5521 5520 5517 5515 5515 5520 5524 5524 5522 5529 5538 5542 5542 5543 5542 5541 5540 5542 5544 5544 5545 5545 5547 5549 5551 5555 5557 5560 5563 5564 5566 5567 5570 5572 5574 5575 5577 5577 5577 5577
5509 5510 5514 5514 5512 5511 5510 5508 5508 5509 5512 5513 5512 5523 5532 5539 5539 5538 5537 5537 5536 5536 5536 5536 5537 5537 5538 5540 5542 5546 5548 5550 5553 5554 5555 5557 5559 5561 5562 5563 5564 5566 5567 5567
5498 5501 5505 5505 5502 5503 5502 5505 5505 5504 5497 5493 5499 5500 5524 5528 5529 5532 5530 5528 5528 5529 5529 5529 5529 5530 5530 5532 5534 5536 5538 5541 5543 5544 5545 5546 5547 5549 5551 5551 5553 5555 5556 5557
5492 5494 5496 5497 5496 5496 5493 5495 5493 5491 5486 5480 5486 5485 5512 5516 5522 5528 5525 5522 5521 5521 5521 5521 5522 5523 5524 5525 5526 5527 5528 5532 5534 5534 5535 5535 5536 5538 5539 5539 5541 5543 5545 5546
5485 5487 5487 5488 5489 5488 5485 5483 5479 5471 5468 5473 5481 5479 5499 5504 5515 5520 5520 5517 5516 5515 5515 5516 5516 5517 5518 5518 5518 5518 5520 5522 5524 5524 5524 5525 5526 5526 5526 5528 5530 5531 5533 5535
5476 5480 5480 5481 5480 5479 5476 5469 5465 5465 5455 5467 5475 5475 5493 5507 5508 5512 5513 5511 5510 5509 5508 5508 5510 5510 5511 5511 5510 5510 5512 5513 5514 5514 5514 5515 5515 5515 5516 5517 5518 5520 5521 5523
5468 5468 5471 5471 5471 5468 5465 5465 5461 5463 5460 5462 5466 5471 5494 5501 5500 5502 5504 5503 5504 5503 5502 5502 5503 5504 5503 5503 5502 5502 5503 5504 5504 5504 5505 5505 5506 5505 5505 5506 5506 5508 5509 5511
5457 5462 5465 5465 5465 5465 5460 5452 5455 5444 5438 5446 5463 5470 5487 5497 5496 5495 5495 5495 5495 5495 5495 5494 5494 5495 5495 5495 5494 5495 5495 5495 5495 5495 5495 5496 5496 5495 5495 5495 5495 5497 5498 5499
5451 5449 5454 5455 5458 5455 5453 5447 5439 5441 5448 5456 5465 5467 5479 5489 5488 5486 5484 5485 5487 5488 5487 5486 5486 5486 5486 5487 5487 5487 5487 5486 5486 5485 5486 5488 5487 5487 5485 5485 5485 5486 5487 5487
5442 5439 5441 5443 5442 5441 5443 5440 5437 5431 5434 5442 5453 5473 5481 5480 5480 5478 5477 5477 5477 5478 5478 5477 5477 5478 5477 5477 5477 5477 5477 5477 5476 5476 5477 5477 5478 5477 5476 5475 5475 5475 5475 5476
5432 5426 5426 5431 5431 5432 5435 5436 5432 5436 5431 5423 5430 5459 5476 5471 5470 5469 5468 5469 5469 5469 5469 5468 5468 5469 5469 5468 5468 5468 5468 5467 5467 5467 5467 5468 5468 5468 5467 5466 5465 5465 5464 5465
5425 5421 5425 5433 5429 5423 5423 5425 5423 5422 5420 5415 5430 5461 5468 5462 5462 5461 5459 5459 5460 5461 5461 5460 5460 5460 5460 5460 5460 5460 5460 5459 5458 5458 5458 5459 5459 5458 5457 5456 5456 5455 5454 5454
5423 5414 5421 5431 5434 5425 5420 5418 5414 5418 5419 5419 5428 5450 5461 5457 5456 5455 5453 5452 5451 5452 5453 5452 5452 5452 5452 5453 5453 5453 5452 5451 5451 5450 5450 5450 5450 5450 5449 5448 5447 5446 5445 5444
5414 5411 5408 5412 5418 5416 5417 5417 5410 5414 5422 5426 5437 5437 5452 5448 5445 5445 5445 5444 5445 5445 5446 5445 5444 5444 5445 5445 5445 5446 5445 5444 5443 5442 5442 5442 5441 5440 5440 5439 5438 5437 5436 5435
5400 5401 5402 5409 5414 5411 5413 5417 5413 5413 5416 5418 5424 5433 5440 5436 5436 5435 5436 5437 5437 5437 5438 5437 5437 5437 5438 5437 5438 5438 5438 5437 5436 5434 5434 5433 5432 5431 5431 5431 5430 5429 5427 5426
5390 5391 5397 5405 5404 5411 5416 5420 5414 5413 5413 5416 5424 5434 5432 5431 5433 5431 5429 5430 5430 5430 5430 5430 5430 5430 5430 5430 5430 5430 5429 5429 5428 5427 5427 5425 5425 5424 5424 5424 5422 5420 5419 5418
5387 5384 5383 5392 5399 5411 5429 5418 5415 5415 5414 5411 5416 5421 5421 5422 5423 5423 5423 5422 5422 5423 5424 5424 5423 5424 5424 5423 5423 5423 5422 5421 5421 5420 5420 5419 5418 5418 5417 5415 5414 5412 5411 5409
5384 5384 5380 5383 5390 5401 5419 5415 5408 5409 5416 5414 5411 5414 5414 5415 5418 5422 5421 5417 5415 5416 5417 5417 5417 5417 5417 5417 5417 5416 5415 5413 5413 5413 5412 5411 5411 5410 5409 5408 5406 5404 5403 5401
5375 5375 5374 5375 5392 5406 5421 5412 5406 5410 5414 5416 5409 5410 5408 5409 5413 5417 5416 5412 5411 5411 5411 5411 5411 5410 5411 5410 5409 5408 5407 5406 5405 5405 5404 5404 5403 5403 5401 5400 5398 5397 5396 5394
5370 5366 5367 5371 5379 5397 5408 5401 5405 5410 5417 5413 5406 5405 5403 5402 5405 5407 5407 5407 5406 5406 5405 5405 5404 5404 5404 5403 5402 5401 5399 5398 5398 5397 5397 5397 5396 5394 5394 5392 5391 5389 5388 5387
5372 5366 5364 5366 5377 5399 5400 5396 5398 5406 5406 5404 5402 5401 5399 5398 5399 5399 5400 5400 5401 5400 5400 5399 5397 5397 5397 5395 5394 5393 5392 5391 5391 5390 5390 5389 5388 5387 5387 5384 5383 5381 5380 5379
5369 5376 5375 5380 5395 5398 5392 5395 5397 5395 5397 5398 5396 5396 5394 5392 5393 5394 5393 5393 5393 5393 5392 5391 5390 5390 5389 5387 5386 5385 5385 5384 5384 5383 5383 5382 5381 5379 5378 5376 5375 5374 5372 5372
5369 5369 5370 5372 5386 5390 5389 5389 5390 5391 5391 5393 5392 5391 5389 5388 5387 5387 5386 5386 5386 5385 5385 5384 5383 5382 5381 5379 5379 5378 5378 5377 5377 5376 5375 5374 5372 5371 5370 5369 5368 5368 5367 5367
5376 5364 5366 5371 5382 5386 5391 5387 5387 5388 5387 5387 5387 5386 5385 5383 5382 5381 5379 5379 5378 5379 5378 5377 5375 5374 5373 5372 5371 5372 5371 5371 5369 5368 5367 5365 5364 5363 5362 5362 5361 5362 5361 5362
5371 5369 5372 5384 5387 5384 5389 5388 5384 5383 5383 5382 5381 5381 5380 5378 5376 5375 5373 5372 5372 5371 5370 5369 5368 5368 5367 5366 5366 5365 5365 5364 5363 5362 5360 5359 5358 5357 5356 5356 5356 5356 5357 5358